{"data":{"norad_id":68564,"intl_designator":"2026-070Y","name":"STARLINK-37008","alt_names":[],"object_type":"PAYLOAD","status":"ACTIVE","operator":null,"country":"US","launch_date":"2026-04-02","launch_site_code":"AFETR","launch_vehicle":null,"mission":null,"orbit_class":"UNKNOWN","rcs_meters":null,"size_class":null,"mass_kg":null,"dimensions":null,"purposes":["comms"],"wikipedia_slug":null,"has_3d_model":false,"image_url":null,"decayed_at":null,"tle_current":{"epoch":"2026-05-24T21:41:12.808608Z","epoch_age_seconds":80009,"freshness":"FRESH","line1":"1 68564U 26070Y   26144.90362047  .00011175  00000+0  34151-3 0  9993","line2":"2 68564  53.1602   7.8358 0001253  93.9580 266.1566 15.34388032  8236","mean_motion":15.34388032,"eccentricity":0.0001253,"inclination_deg":53.1602,"raan_deg":7.8358,"arg_perigee_deg":93.958,"mean_anomaly_deg":266.1566,"bstar":0.00034151,"rev_number":823,"period_min":93.848490079985,"perigee_km":461.88165011723,"apogee_km":463.59597359568,"semimajor_km":6840.8758118565,"source":"CELESTRAK","updated_at":"2026-05-25T13:38:21.964267Z"}}}